Location: ????????
(38.4362°N, 22.8767°E)
Time: 14:22:23
(UTC+00:00)

IRS-1D - Pass Details

Date: 23 April 2024
Orbit: 739 x 813 km, 98.8° (Epoch: 18 May)

Event Time Altitude Azimuth Distance (km) Brightness Sun altitude
Rises 01:48:10 0° 18° (NNE) 3,269 7.6 -20.6°
Reaches altitude 10° 01:50:31 10° 22° (NNE) 2,348 6.8 -20.2°
Maximum altitude 01:55:37 56° 101° (E) 939 4.1 -19.4°
Enters shadow 02:00:21 12° 178° (S) 2,212 5.6 -18.6°
